Weather History for Canby, MN

Change the Weather History Date:

Tuesday, February 5, 2013

  Actual Average (KMML) Record (KMML)
Temperature  
Mean Temperature 22 °F -  
Max Temperature 34 °F 25 °F 55 °F (1991)
Min Temperature 10 °F 3 °F -24 °F (1982)
Degree Days  
Heating Degree Days 43    
Moisture  
Dew Point 20 °F    
Average Humidity 86    
Maximum Humidity 96    
Minimum Humidity 79    
Precipitation  
Precipitation 0.00 in - - ()
Sea Level Pressure  
Sea Level Pressure 29.89 in    
Wind  
Wind Speed 14 mph (NW)    
Max Wind Speed 22 mph    
Max Gust Speed 33 mph    
Visibility 9 miles    
Events      
Averages and records for this station are not official NWS values.
T = Trace of Precipitation, MM = Missing Value Source: NWS Daily Summary

Daily Weather History Graph

Daily Weather History Graph

Search for Another Location

Airport:

Trip Planner

Search our weather history database for the weather conditions in past years. The results will help you decide how hot, cold, wet, or windy it might be!

Date:

Astronomy

Feb. 05, 2013 Rise Set
Actual Time 7:38 AM CST 5:39 PM CST
Civil Twilight 7:08 AM CST 6:10 PM CST
Nautical Twilight 6:33 AM CST 6:45 PM CST
Astronomical Twilight 5:59 AM CST 7:19 PM CST
Moon 3:26 AM CST (2/5) 12:53 PM CST (2/5)
Length of Visible Light 11h 02m
Length of Day
10h 00m
Waning Crescent, 26% of the Moon is Illuminated
Feb 5
Waning Crescent
Feb 10
New
Feb 17
First Quarter
Feb 25
Full
Mar 4
Last Quarter

Hourly Weather History & Observations

Time (CST) Temp. Windchill Dew Point Humidity Pressure Visibility Wind Dir Wind Speed Gust Speed Precip Events Conditions
12:16 AM 27.0 °F 12.8 °F 22.3 °F 83% 29.65 in 10.0 mi SW 21.9 mph 31.1 mph N/A   Clear
12:36 AM 27.1 °F 13.4 °F 22.5 °F 83% 29.64 in 10.0 mi SW 20.7 mph 27.6 mph N/A   Clear
12:55 AM 28.2 °F 14.8 °F 23.4 °F 82% 29.64 in 10.0 mi WSW 20.7 mph 29.9 mph N/A   Clear
1:16 AM 28.2 °F 14.8 °F 23.4 °F 82% 29.65 in 10.0 mi WSW 20.7 mph 33.4 mph N/A   Scattered Clouds
1:36 AM 28.8 °F 15.9 °F 23.9 °F 82% 29.65 in 10.0 mi WSW 19.6 mph 31.1 mph N/A   Scattered Clouds
1:56 AM 28.6 °F 15.6 °F 23.9 °F 83% 29.66 in 10.0 mi WSW 19.6 mph 26.5 mph N/A   Mostly Cloudy
2:16 AM 30.2 °F 17.8 °F 25.0 °F 81% 29.66 in 10.0 mi WSW 19.6 mph 31.1 mph N/A   Overcast
2:36 AM 30.7 °F 19.2 °F 25.5 °F 81% 29.65 in 10.0 mi WSW 17.3 mph 24.2 mph N/A   Overcast
2:56 AM 30.9 °F 21.7 °F 25.5 °F 80% 29.65 in 10.0 mi WSW 11.5 mph - N/A   Overcast
3:15 AM 30.9 °F 20.7 °F 25.5 °F 80% 29.65 in 10.0 mi WSW 13.8 mph 20.7 mph N/A   Overcast
3:36 AM 29.7 °F 19.1 °F 24.8 °F 82% 29.66 in 10.0 mi WSW 13.8 mph - N/A   Overcast
3:56 AM 29.7 °F 19.1 °F 25.2 °F 83% 29.66 in 10.0 mi West 13.8 mph - N/A   Overcast
4:16 AM 30.7 °F 20.4 °F 26.2 °F 83% 29.66 in 10.0 mi West 13.8 mph - N/A   Overcast
4:35 AM 30.9 °F 20.7 °F 27.1 °F 86% 29.68 in 10.0 mi West 13.8 mph - N/A   Overcast
4:56 AM 32.2 °F 21.8 °F 29.3 °F 89% 29.68 in 10.0 mi West 15.0 mph - N/A   Overcast
5:16 AM 33.3 °F 23.2 °F 30.7 °F 90% 29.69 in 10.0 mi WNW 15.0 mph - N/A   Overcast
5:35 AM 32.9 °F 24.1 °F 29.8 °F 88% 29.69 in 10.0 mi WNW 11.5 mph - N/A   Mostly Cloudy
6:16 AM 34.2 °F 24.8 °F 29.8 °F 84% 29.70 in 10.0 mi WNW 13.8 mph - N/A   Overcast
6:35 AM 34.0 °F 25.0 °F 29.7 °F 84% 29.72 in 10.0 mi WNW 12.7 mph - N/A   Overcast
6:56 AM 33.8 °F 24.8 °F 30.2 °F 87% 29.73 in 10.0 mi NW 12.7 mph - N/A   Overcast
7:16 AM 33.3 °F 23.7 °F 29.7 °F 87% 29.74 in 10.0 mi NW 13.8 mph - N/A   Mostly Cloudy
7:35 AM 33.1 °F 23.0 °F 29.3 °F 86% 29.75 in 10.0 mi WNW 15.0 mph - N/A   Overcast
7:56 AM 33.1 °F 23.0 °F 29.3 °F 86% 29.76 in 10.0 mi WNW 15.0 mph - N/A   Overcast
8:16 AM 32.9 °F 22.8 °F 29.3 °F 87% 29.79 in 10.0 mi NW 15.0 mph 24.2 mph N/A   Overcast
8:35 AM 33.3 °F 23.7 °F 30.0 °F 88% 29.80 in 10.0 mi NW 13.8 mph - N/A   Overcast
8:56 AM 33.4 °F 24.8 °F 29.8 °F 87% 29.82 in 10.0 mi NW 11.5 mph - N/A   Overcast
9:16 AM 33.1 °F 26.9 °F 30.0 °F 89% 29.83 in 10.0 mi North 6.9 mph - N/A   Overcast
9:36 AM 32.0 °F 23.6 °F 29.8 °F 92% 29.85 in 7.0 mi NNW 10.4 mph 18.4 mph N/A   Overcast
9:55 AM 30.6 °F 18.6 °F 28.0 °F 90% 29.87 in 7.0 mi North 18.4 mph 25.3 mph N/A   Overcast
10:16 AM 24.3 °F 10.8 °F 22.1 °F 91% 29.89 in 4.0 mi NNW 17.3 mph 21.9 mph N/A   Overcast
10:36 AM 22.6 °F 9.6 °F 20.8 °F 93% 29.91 in 5.0 mi NNW 15.0 mph 18.4 mph N/A   Overcast
10:56 AM 22.3 °F 9.2 °F 20.3 °F 92% 29.93 in 5.0 mi NNW 15.0 mph 20.7 mph N/A   Overcast
11:16 AM 20.7 °F 8.2 °F 18.3 °F 91% 29.95 in 5.0 mi NNW 12.7 mph - N/A   Overcast
11:35 AM 20.1 °F 8.1 °F 18.5 °F 93% 29.96 in 3.0 mi NNW 11.5 mph - N/A   Overcast
11:56 AM 20.1 °F 6.9 °F 19.0 °F 96% 29.96 in 2.0 mi NW 13.8 mph - N/A   Overcast
12:16 PM 19.9 °F 6.7 °F 18.3 °F 93% 29.97 in 7.0 mi NW 13.8 mph - N/A   Overcast
12:36 PM 19.9 °F 5.7 °F 17.6 °F 91% 29.98 in 7.0 mi NW 16.1 mph 20.7 mph N/A   Overcast
12:56 PM 20.1 °F 7.5 °F 16.9 °F 87% 29.98 in 10.0 mi NW 12.7 mph 18.4 mph N/A   Overcast
1:16 PM 20.7 °F 8.2 °F 17.4 °F 87% 29.99 in 10.0 mi NNW 12.7 mph - N/A   Overcast
1:36 PM 20.5 °F 9.2 °F 16.7 °F 85% 29.99 in 10.0 mi NW 10.4 mph - N/A   Overcast
1:55 PM 19.9 °F 7.9 °F 15.8 °F 84% 29.99 in 10.0 mi NW 11.5 mph - N/A   Overcast
2:16 PM 19.9 °F 9.3 °F 15.4 °F 83% 29.99 in 10.0 mi NNW 9.2 mph - N/A   Overcast
2:36 PM 20.3 °F 9.0 °F 15.8 °F 83% 30.00 in 10.0 mi NW 10.4 mph - N/A   Overcast
2:55 PM 20.3 °F 9.8 °F 16.2 °F 84% 30.00 in 10.0 mi NW 9.2 mph - N/A   Overcast
3:15 PM 20.1 °F 10.3 °F 15.4 °F 82% 30.01 in 10.0 mi NW 8.1 mph - N/A   Overcast
3:36 PM 19.9 °F 9.3 °F 15.1 °F 81% 30.01 in 10.0 mi NNW 9.2 mph - N/A   Overcast
3:55 PM 19.4 °F 10.4 °F 14.9 °F 83% 30.02 in 10.0 mi NNW 6.9 mph - N/A   Overcast
4:15 PM 19.4 °F 10.4 °F 14.9 °F 83% 30.03 in 10.0 mi NNW 6.9 mph - N/A   Overcast
4:36 PM 19.4 °F 11.5 °F 15.1 °F 83% 30.03 in 10.0 mi North 5.8 mph - N/A   Overcast
4:56 PM 19.0 °F 11.1 °F 14.9 °F 84% 30.03 in 10.0 mi NNW 5.8 mph - N/A   Overcast
5:16 PM 19.0 °F 10.0 °F 14.2 °F 81% 30.03 in 10.0 mi NNW 6.9 mph - N/A   Overcast
5:36 PM 18.9 °F 12.1 °F 13.8 °F 81% 30.03 in 10.0 mi NNW 4.6 mph - N/A   Overcast
5:55 PM 18.9 °F 13.7 °F 13.8 °F 81% 30.03 in 10.0 mi NNW 3.5 mph - N/A   Overcast
6:16 PM 18.9 °F - 13.5 °F 79% 30.03 in 10.0 mi Calm Calm - N/A   Overcast
6:36 PM 18.5 °F - 13.5 °F 81% 30.04 in 10.0 mi Calm Calm - N/A   Overcast
6:55 PM 18.5 °F 11.7 °F 13.8 °F 82% 30.04 in 10.0 mi North 4.6 mph - N/A   Overcast
7:16 PM 18.3 °F 13.1 °F 13.8 °F 83% 30.04 in 10.0 mi North 3.5 mph - N/A   Overcast
7:36 PM 18.5 °F - 13.6 °F 81% 30.04 in 10.0 mi Calm Calm - N/A   Overcast
7:56 PM 18.3 °F - 13.6 °F 82% 30.04 in 10.0 mi Calm Calm - N/A   Overcast
8:15 PM 18.1 °F 11.3 °F 13.3 °F 81% 30.04 in 10.0 mi NNE 4.6 mph - N/A   Overcast
8:36 PM 16.9 °F 8.5 °F 12.9 °F 84% 30.04 in 10.0 mi ENE 5.8 mph - N/A   Mostly Cloudy
9:16 PM 14.5 °F - 11.1 °F 86% 30.04 in 10.0 mi Calm Calm - N/A   Scattered Clouds
9:36 PM 14.0 °F 8.2 °F 10.9 °F 88% 30.06 in 10.0 mi SE 3.5 mph - N/A   Scattered Clouds
9:56 PM 14.0 °F 8.2 °F 10.9 °F 88% 30.06 in 10.0 mi SE 3.5 mph - N/A   Clear
10:16 PM 14.4 °F - 11.3 °F 88% 30.06 in 10.0 mi Calm Calm - N/A   Clear
10:36 PM 14.2 °F - 11.1 °F 88% 30.06 in 10.0 mi Calm Calm - N/A   Clear
10:55 PM 12.2 °F - 9.5 °F 89% 30.06 in 10.0 mi Calm Calm - N/A   Clear
11:16 PM 11.8 °F - 9.5 °F 90% 30.05 in 10.0 mi Calm Calm - N/A   Clear
11:35 PM 10.4 °F 2.2 °F 8.6 °F 92% 30.05 in 10.0 mi East 4.6 mph - N/A   Clear
11:56 PM 10.4 °F 4.0 °F 8.6 °F 92% 30.05 in 10.0 mi ESE 3.5 mph - N/A   Clear